Date,TemperatureHighF,TemperatureAvgF,TemperatureLowF,DewpointHighF,DewpointAvgF,DewpointLowF,HumidityHigh,HumidityAvg,HumidityLow,PressureMaxIn,PressureMinIn,WindSpeedMaxMPH,WindSpeedAvgMPH,GustSpeedMaxMPH,PrecipitationSumIn
2013-1-1,35.6,26.8,9.7,28.0,18.6,6.0,86,71,63,29.97,29.74,12,3,22,0.00
2013-1-2,26.5,15.7,4.2,18.0,9.0,-2.0,93,76,56,30.23,29.94,12,2,18,0.00
2013-1-3,15.9,6.9,-4.3,10.0,0.1,-8.0,87,74,62,30.26,29.98,3,0,5,0.00
2013-1-4,38.3,28.0,16.0,25.0,19.7,10.0,89,72,55,29.97,29.83,10,1,24,0.00
2013-1-5,36.5,31.6,20.4,27.0,22.6,17.0,89,70,54,30.23,29.89,15,3,25,0.00
2013-1-6,40.3,31.1,20.6,30.0,26.2,18.0,94,82,65,30.16,29.88,5,0,9,0.00
2013-1-7,36.7,28.1,15.0,33.0,23.1,13.0,93,82,69,30.36,29.96,12,1,18,0.00
2013-1-8,40.2,23.7,8.6,29.0,19.3,7.0,94,84,63,30.36,30.26,3,0,7,0.00
2013-1-9,45.0,29.5,14.4,33.0,24.3,13.0,97,83,49,30.35,29.96,15,2,36,0.00
2013-1-10,43.2,37.1,26.8,30.0,26.8,23.0,87,67,58,30.54,30.12,17,4,35,0.00
2013-1-11,37.4,30.5,23.6,36.0,27.7,22.0,97,89,66,30.52,30.07,12,1,17,0.05
2013-1-12,42.9,39.3,36.2,42.0,38.8,36.0,99,98,95,30.12,30.05,6,0,11,0.00
2013-1-13,44.4,40.9,36.2,44.0,40.9,36.0,100,100,99,30.11,29.91,11,1,17,0.00
2013-1-14,46.5,41.0,33.7,45.0,35.6,25.0,100,82,62,30.30,29.82,11,3,22,0.00
2013-1-15,36.0,32.5,29.6,26.0,23.9,22.0,79,71,59,30.33,30.21,8,1,10,0.00
2013-1-16,31.5,29.8,27.8,30.0,28.0,24.0,98,93,78,30.19,29.80,0,0,2,0.27
2013-1-17,36.8,29.3,22.1,34.0,23.1,10.0,99,79,56,30.15,29.82,9,2,18,0.00
2013-1-18,22.6,17.8,11.6,12.0,6.2,-4.0,79,61,40,30.40,30.07,6,1,15,0.00
2013-1-19,42.1,33.8,22.8,28.0,21.4,12.0,69,61,53,30.24,29.75,13,3,24,0.00
2013-1-20,44.4,35.4,20.9,34.0,23.4,12.0,81,63,34,30.00,29.51,18,4,29,0.00
2013-1-21,25.9,21.8,16.8,20.0,13.9,11.0,89,72,55,30.05,29.79,7,1,12,0.00
2013-1-22,19.3,14.7,7.0,15.0,4.4,-4.0,91,66,41,30.11,29.77,11,3,21,0.00
2013-1-23,9.7,5.4,-1.2,2.0,-3.5,-7.0,85,67,52,30.20,30.11,14,1,22,0.00
2013-1-24,13.0,5.9,-4.8,4.0,-3.1,-8.0,86,68,46,30.37,30.16,20,2,29,0.00
2013-1-25,18.1,11.5,4.8,11.0,1.9,-3.0,89,67,45,30.41,30.07,10,1,15,0.01
2013-1-26,20.4,12.9,6.2,9.0,5.9,4.0,92,75,51,30.33,30.06,11,2,18,0.00
2013-1-27,26.6,18.1,9.3,9.0,3.6,-2.0,87,57,29,30.50,30.34,7,1,14,0.00
2013-1-28,30.8,23.8,16.8,30.0,17.9,7.0,97,79,54,30.47,29.93,5,0,9,0.09
2013-1-29,37.3,31.3,25.8,37.0,30.1,25.0,98,95,88,30.12,29.95,6,0,18,0.19
2013-1-30,54.6,47.1,37.4,54.0,46.9,37.0,100,99,97,29.99,29.28,14,3,28,0.12
2013-1-31,52.7,38.8,26.0,53.0,32.1,16.0,100,78,51,29.61,28.86,22,4,34,0.51
2013-2-1,26.8,23.0,19.0,20.0,12.2,8.0,81,64,54,30.14,29.61,14,3,25,0.00
2013-2-2,26.7,20.1,10.3,16.0,10.9,6.0,88,68,50,30.20,29.99,9,1,21,0.00
2013-2-3,27.8,21.9,16.9,17.0,15.4,13.0,93,77,56,30.02,29.75,4,0,7,0.00
2013-2-4,24.9,20.5,13.9,19.0,13.5,10.0,86,75,59,29.93,29.75,16,2,22,0.00
2013-2-5,27.9,22.2,15.2,23.0,13.3,9.0,87,70,54,30.00,29.86,3,0,7,0.00
2013-2-6,32.5,26.2,19.0,26.0,17.1,5.0,94,71,39,30.35,29.86,10,2,23,0.00
2013-2-7,24.9,19.4,13.3,9.0,6.8,5.0,75,59,45,30.52,30.35,4,0,9,0.00
2013-2-8,28.2,23.9,19.5,26.0,19.3,8.0,97,83,61,30.36,29.80,9,1,24,0.16
2013-2-9,25.2,19.2,7.4,23.0,13.7,2.0,97,80,57,30.36,29.83,13,2,21,0.08
2013-2-10,27.9,12.7,-3.0,10.0,4.4,-6.0,90,72,41,30.50,30.26,4,0,8,0.00
2013-2-11,39.3,32.1,14.1,37.0,29.1,10.0,97,88,66,30.26,29.61,10,2,23,0.00
2013-2-12,37.7,35.6,33.1,33.0,28.6,25.0,94,76,66,29.91,29.65,14,2,26,0.00
2013-2-13,39.2,33.7,30.4,27.0,24.0,22.0,85,69,51,29.87,29.69,6,0,9,0.00
2013-2-14,40.4,31.5,23.3,26.0,23.5,20.0,87,73,57,29.92,29.69,7,0,12,0.00
2013-2-15,47.9,38.7,29.7,31.0,27.7,25.0,92,66,46,29.98,29.85,8,1,16,0.01
2013-2-16,31.3,28.7,24.0,29.0,18.7,10.0,95,68,52,29.99,29.83,9,2,16,0.01
2013-2-17,23.7,19.0,12.8,11.0,5.0,1.0,64,55,42,29.92,29.66,23,5,37,0.00
2013-2-18,26.6,17.3,8.8,11.0,3.9,-1.0,73,57,39,30.20,29.93,18,4,26,0.00
2013-2-19,41.2,29.7,17.7,34.0,22.7,11.0,97,76,54,30.14,29.59,12,2,28,0.02
2013-2-20,32.0,27.5,24.4,27.0,15.7,10.0,81,62,45,29.87,29.63,15,5,28,0.00
2013-2-21,24.7,20.3,17.4,16.0,11.9,9.0,78,70,65,30.34,29.86,19,6,28,0.00
2013-2-22,35.4,27.8,18.8,26.0,19.9,15.0,86,73,60,30.42,30.21,13,1,13,0.00
2013-2-23,35.9,34.0,31.6,35.0,31.2,26.0,97,90,74,30.21,29.84,7,1,16,0.00
2013-2-24,39.0,33.9,31.8,36.0,30.5,26.0,99,88,67,29.95,29.74,10,2,18,0.02
2013-2-25,40.2,34.6,25.8,30.0,27.8,24.0,95,77,59,30.21,29.96,4,0,11,0.00
2013-2-26,44.0,35.9,25.0,31.0,27.5,23.0,94,73,54,30.28,30.00,7,1,15,0.00
2013-2-27,40.0,35.2,31.8,39.0,33.7,26.0,98,94,66,30.01,29.51,7,0,25,0.56
2013-2-28,42.1,37.0,34.0,38.0,35.0,33.0,99,92,78,29.57,29.52,3,0,9,0.06
2013-3-1,40.1,35.1,31.6,33.0,31.2,26.0,96,86,72,29.74,29.57,10,2,16,0.00
2013-3-2,34.0,29.6,24.8,26.0,23.6,20.0,85,78,69,29.76,29.69,10,4,16,0.00
2013-3-3,31.2,25.3,21.3,23.0,19.4,16.0,90,78,69,29.75,29.67,17,4,21,0.00
2013-3-4,29.6,27.5,24.8,25.0,22.0,20.0,92,80,73,29.89,29.73,17,5,32,0.00
2013-3-5,40.4,32.7,28.2,28.0,25.2,22.0,86,74,61,30.05,29.89,10,2,14,0.00
2013-3-6,42.0,34.9,28.1,33.0,27.9,25.0,90,76,63,30.09,30.01,14,2,22,0.00
2013-3-7,37.3,33.6,29.5,31.0,27.1,23.0,98,78,58,30.13,30.07,7,1,21,0.16
2013-3-8,41.4,32.6,28.5,34.0,29.3,26.0,98,89,69,30.27,30.07,4,0,11,0.22
2013-3-9,50.2,35.5,24.0,28.0,25.1,22.0,92,69,40,30.33,30.25,9,1,11,0.00
2013-3-10,52.2,38.0,20.6,34.0,26.7,19.0,96,67,39,30.33,30.16,11,2,18,0.00
2013-3-11,48.3,41.7,35.5,43.0,36.1,32.0,89,81,69,30.20,29.94,14,3,24,0.00
2013-3-12,52.0,47.0,38.4,52.0,44.6,33.0,99,91,80,29.95,29.64,13,4,24,0.74
2013-3-13,44.4,37.5,32.4,32.0,28.2,23.0,90,71,44,29.84,29.75,10,2,17,0.00
2013-3-14,32.2,26.6,22.7,25.0,14.7,8.0,76,61,51,29.90,29.80,17,5,32,0.00
2013-3-15,37.2,29.2,18.8,31.0,19.7,11.0,93,68,52,29.93,29.63,8,2,19,0.02
2013-3-16,34.8,29.1,22.1,25.0,17.7,14.0,81,63,43,29.89,29.73,5,1,11,0.00
2013-3-17,33.3,26.9,19.2,17.0,11.4,8.0,74,54,37,30.31,29.90,13,3,23,0.00
2013-3-18,36.5,26.1,13.5,26.0,11.5,5.0,95,58,31,30.43,30.07,5,1,15,0.17
2013-3-19,35.1,30.3,26.3,33.0,29.2,25.0,98,95,90,30.06,29.67,8,0,14,0.37
2013-3-20,36.3,27.6,17.6,25.0,21.0,16.0,97,78,52,29.79,29.73,12,2,22,0.01
2013-3-21,35.4,26.0,13.4,19.0,14.2,10.0,94,65,37,29.79,29.62,8,1,12,0.00
2013-3-22,35.0,27.9,18.3,28.0,20.3,13.0,85,74,63,29.80,29.66,13,2,18,0.00
2013-3-23,38.4,33.6,29.3,26.0,23.5,21.0,87,68,52,29.87,29.76,22,5,30,0.00
2013-3-24,43.7,35.9,30.3,26.0,23.9,23.0,74,63,47,29.87,29.72,6,1,15,0.00
2013-3-25,44.2,36.3,29.1,30.0,26.5,23.0,80,68,54,29.75,29.48,5,0,15,0.00
2013-3-26,45.8,38.8,31.3,30.0,26.1,21.0,85,62,38,29.82,29.58,6,0,14,0.00
2013-3-27,49.8,40.7,28.9,32.0,28.5,22.0,77,63,45,29.91,29.80,15,3,21,0.00
2013-3-28,47.0,41.0,36.0,35.0,32.9,30.0,87,74,60,30.07,29.91,13,3,15,0.00
2013-3-29,48.6,42.7,37.0,34.0,31.9,30.0,78,66,52,30.09,30.03,12,3,20,0.00
2013-3-30,52.7,43.2,28.6,32.0,26.8,22.0,92,56,32,30.11,30.02,14,2,21,0.00
2013-3-31,55.1,41.4,25.3,40.0,29.3,22.0,91,65,38,30.08,29.68,13,2,23,0.07
2013-4-1,49.8,39.0,30.6,46.0,32.4,17.0,99,79,45,29.85,29.53,20,4,30,0.03
2013-4-2,35.1,30.4,26.5,25.0,19.7,13.0,89,66,45,30.00,29.85,16,4,29,0.00
2013-4-3,37.6,31.4,26.0,24.0,18.5,15.0,90,60,41,30.26,29.99,18,5,31,0.00
2013-4-4,53.7,40.0,27.1,26.0,22.3,18.0,79,52,31,30.33,29.93,12,2,18,0.00
2013-4-5,51.7,43.5,33.1,30.0,25.5,20.0,72,51,32,29.95,29.75,18,3,30,0.00
2013-4-6,45.4,36.0,28.0,28.0,13.6,7.0,73,42,24,30.27,29.96,10,2,17,0.00
2013-4-7,58.0,45.7,28.3,41.0,30.0,18.0,78,56,30,30.22,29.82,25,4,30,0.00
2013-4-8,60.6,50.5,40.6,43.0,36.9,33.0,87,62,36,30.11,29.90,9,1,14,0.00
2013-4-9,59.7,55.2,51.7,49.0,44.6,38.0,82,68,56,30.00,29.78,22,3,24,0.01
2013-4-10,56.8,50.3,45.1,52.0,47.8,44.0,98,92,79,29.95,29.81,3,0,9,0.19
2013-4-11,45.0,39.2,31.9,44.0,31.1,22.0,97,75,47,30.12,29.85,10,2,17,0.03
2013-4-12,39.7,35.3,31.6,37.0,33.5,27.0,98,93,79,30.11,29.75,5,1,13,0.39
2013-4-13,50.0,41.5,36.6,41.0,38.1,36.0,99,88,67,29.90,29.79,9,0,16,0.00
2013-4-14,45.0,41.0,30.9,38.0,31.8,26.0,90,71,51,30.22,29.91,11,2,24,0.00
2013-4-15,61.0,43.4,26.8,38.0,31.4,25.0,95,67,40,30.34,30.19,7,1,20,0.00
2013-4-16,59.4,52.8,44.9,55.0,44.5,32.0,92,74,57,30.27,29.98,9,3,27,0.11
2013-4-17,63.7,53.0,42.4,43.0,36.4,31.0,77,56,30,30.29,30.10,11,2,18,0.00
2013-4-18,64.5,51.3,34.1,48.0,38.1,32.0,91,63,39,30.31,29.98,15,3,28,0.00
2013-4-19,71.1,60.6,43.4,63.0,56.1,41.0,95,86,72,29.98,29.48,27,6,33,0.59
2013-4-20,51.6,44.2,34.5,41.0,34.0,23.0,96,70,43,30.30,29.70,10,3,24,0.05
2013-4-21,51.4,39.5,29.7,26.0,22.0,20.0,70,52,32,30.62,30.30,8,1,15,0.00
2013-4-22,51.5,35.1,28.5,28.0,25.9,24.0,88,71,34,30.68,30.62,4,0,17,0.00
2013-4-26,55.8,49.6,42.0,32.0,30.2,29.0,62,48,38,30.42,30.37,8,2,16,0.00
2013-4-27,65.3,49.8,31.7,37.0,32.1,27.0,90,56,25,30.43,30.23,6,1,12,0.00
2013-4-28,74.2,56.3,35.1,42.0,37.6,33.0,93,55,27,30.28,30.06,12,1,19,0.00
2013-4-29,59.8,55.1,50.9,49.0,42.8,32.0,92,65,42,30.18,30.13,9,1,18,0.02
2013-4-30,72.9,59.4,47.4,49.0,43.5,34.0,94,61,32,30.26,30.17,6,1,14,0.01
2013-5-1,77.5,61.6,41.5,41.0,35.5,31.0,76,41,20,30.41,30.25,6,0,11,0.00
2013-5-2,82.0,65.1,44.5,48.0,42.8,39.0,87,49,23,30.42,30.20,14,1,23,0.00
2013-5-3,72.8,61.4,50.0,43.0,36.9,31.0,60,42,23,30.43,30.26,8,1,17,0.00
2013-5-4,77.4,62.0,43.3,48.0,43.4,33.0,91,55,29,30.31,30.11,9,1,13,0.00
2013-5-5,76.1,60.4,43.9,46.0,39.6,33.0,90,52,22,30.25,30.08,6,0,11,0.00
2013-5-6,75.5,59.5,42.4,51.0,41.7,28.0,92,57,18,30.22,30.03,8,1,11,0.00
2013-5-7,80.3,66.0,48.4,56.0,52.0,47.0,96,64,35,30.12,29.98,9,0,11,0.00
2013-5-8,70.8,63.4,55.5,63.0,58.7,53.0,95,85,70,30.09,29.93,6,0,15,0.18
2013-5-9,71.3,61.1,51.0,58.0,55.0,50.0,99,82,54,29.95,29.81,6,0,12,0.01
2013-5-10,76.3,64.4,49.0,59.0,54.7,48.0,99,74,49,29.94,29.77,5,0,13,0.00
2013-5-11,67.6,62.6,56.1,66.0,58.8,50.0,97,87,71,29.78,29.59,9,1,19,0.08
2013-5-12,58.5,52.8,43.0,51.0,40.8,28.0,92,67,31,29.84,29.63,24,2,24,0.01
2013-5-13,49.1,44.0,36.4,35.0,30.6,27.0,85,60,47,30.06,29.84,11,2,19,0.00
2013-5-14,57.4,45.7,33.1,35.0,32.2,29.0,93,63,34,30.09,29.98,9,1,14,0.00
2013-5-15,65.1,48.3,30.4,54.0,41.5,29.0,96,79,56,30.02,29.56,6,1,25,0.12
2013-5-16,78.0,64.5,42.9,51.0,43.3,38.0,95,51,28,29.80,29.64,11,2,20,0.00
2013-5-17,69.5,58.1,47.4,44.0,42.1,40.0,83,58,35,30.17,29.81,10,1,13,0.00
2013-5-18,72.8,58.0,40.1,50.0,45.3,39.0,96,67,34,30.27,30.16,9,1,15,0.00
2013-5-19,57.9,55.2,46.5,57.0,53.0,45.0,97,92,82,30.26,30.11,8,1,15,0.05
2013-5-20,81.9,66.8,55.9,67.0,60.7,55.0,97,82,59,30.11,29.87,5,0,8,0.00
2013-5-21,90.1,70.9,58.6,72.0,65.2,58.0,99,83,53,29.90,29.73,5,0,17,0.29
2013-5-22,76.5,68.7,62.2,72.0,66.8,62.0,100,94,78,29.84,29.72,8,1,17,0.38
2013-5-23,74.0,68.8,65.2,69.0,66.1,62.0,98,91,82,29.77,29.67,10,1,16,0.24
2013-5-24,65.4,51.2,42.4,65.0,50.2,42.0,99,96,87,29.97,29.60,11,2,26,1.03
2013-5-25,45.4,43.8,42.6,44.0,42.7,41.0,98,96,90,29.96,29.89,13,3,19,0.69
2013-5-26,58.7,49.3,41.4,45.0,42.5,39.0,92,78,55,30.10,29.85,14,3,28,0.01
2013-5-27,69.9,55.1,35.9,46.0,38.9,35.0,99,60,32,30.18,30.08,8,1,19,0.00
2013-5-28,70.0,56.4,39.4,55.0,46.1,38.0,96,71,41,30.19,30.08,12,1,15,0.00
2013-5-29,78.0,63.8,56.6,71.0,61.6,56.0,99,93,77,30.08,29.87,9,1,25,0.33
2013-5-30,87.8,73.6,59.2,73.0,66.4,59.0,100,81,54,30.06,29.98,13,0,14,0.01
2013-5-31,92.2,77.6,63.0,74.0,68.1,63.0,100,75,48,30.06,29.86,6,0,11,0.00
2013-6-1,89.7,78.6,66.9,74.0,68.5,63.0,88,72,54,29.91,29.76,8,1,15,0.00
2013-6-2,86.6,75.8,67.0,75.0,69.7,65.0,95,82,64,29.78,29.63,14,1,17,0.10
2013-6-3,68.7,63.7,54.4,66.0,54.7,39.0,98,74,47,29.90,29.75,8,2,16,0.00
2013-6-4,70.4,59.3,48.8,48.0,44.5,41.0,79,60,42,30.09,29.90,14,3,20,0.00
2013-6-5,74.1,61.8,47.6,53.0,47.2,41.0,90,61,39,30.17,30.04,4,0,9,0.00
2013-6-6,72.6,61.1,51.5,57.0,53.6,50.0,97,78,51,30.10,29.99,8,1,15,0.57
2013-6-7,57.7,56.0,54.9,57.0,55.5,54.0,99,98,95,29.99,29.76,4,0,11,0.71
2013-6-8,69.9,60.8,53.0,61.0,57.1,53.0,100,88,74,30.01,29.68,10,2,12,0.12
2013-6-9,77.6,65.0,51.1,61.0,56.1,50.0,99,76,49,30.13,30.01,9,1,13,0.00
2013-6-10,63.7,59.3,52.5,63.0,58.3,52.0,98,96,90,30.14,29.84,4,0,8,0.71
2013-6-11,69.0,62.2,58.0,68.0,60.7,56.0,100,95,85,29.83,29.52,9,2,16,0.46
2013-6-12,73.7,63.7,55.8,58.0,54.9,53.0,93,74,51,29.80,29.61,10,2,19,0.00
2013-6-13,57.3,55.2,51.5,57.0,54.8,51.0,99,98,93,29.78,29.62,5,0,9,1.63
2013-6-14,75.6,63.0,53.4,63.0,57.4,53.0,100,83,54,29.82,29.66,10,1,13,0.02
2013-6-15,75.7,66.5,56.5,58.0,51.1,46.0,87,61,35,29.95,29.83,11,2,21,0.00
2013-6-16,69.8,62.4,51.0,64.0,56.9,49.0,95,82,70,29.92,29.65,7,1,11,0.00
2013-6-17,84.1,66.8,55.6,67.0,61.6,55.0,99,85,44,29.87,29.73,9,0,32,0.27
2013-6-18,67.0,60.3,53.5,59.0,55.6,51.0,99,85,69,29.92,29.85,8,1,15,0.00
2013-6-19,73.4,60.9,47.5,53.0,48.9,43.0,98,68,40,30.13,29.92,7,1,13,0.00
2013-6-20,79.5,64.3,46.7,59.0,53.1,46.0,97,70,45,30.24,30.13,6,0,10,0.00
2013-6-21,84.9,70.0,53.8,66.0,57.4,49.0,97,69,35,30.23,30.15,5,0,9,0.00
2013-6-22,84.4,73.0,63.1,69.0,64.5,60.0,95,76,56,30.16,30.01,5,1,13,0.00
2013-6-23,91.3,78.5,67.8,76.0,68.5,62.0,84,72,55,30.07,29.91,8,1,18,0.00
2013-6-24,91.2,75.8,66.0,75.0,69.8,66.0,98,83,55,29.98,29.87,7,0,18,0.61
2013-6-25,89.0,73.4,63.1,76.0,69.8,63.0,100,89,60,29.93,29.70,8,0,13,0.50
2013-6-26,82.5,73.8,68.8,72.0,70.0,67.0,100,88,68,29.76,29.70,9,0,12,0.00
2013-6-27,84.5,74.4,64.7,74.0,69.4,64.0,100,86,63,29.76,29.55,5,0,17,0.03
2013-6-28,79.4,72.4,67.5,71.0,68.7,66.0,99,89,65,29.54,29.31,9,1,25,0.88
2013-6-29,81.7,73.0,66.3,73.0,68.5,66.0,100,87,66,29.63,29.42,9,0,14,0.09
2013-6-30,84.9,72.2,64.5,72.0,68.2,64.0,98,88,65,29.86,29.63,5,0,18,0.08
2013-7-1,76.2,70.7,66.5,73.0,69.6,66.0,100,97,88,29.97,29.86,4,0,6,0.40
2013-7-2,84.2,74.7,66.3,77.0,72.0,66.0,100,92,76,30.07,29.96,7,1,13,0.02
2013-7-3,86.5,78.6,72.3,77.0,73.6,71.0,96,85,69,30.14,30.06,7,0,12,0.00
2013-7-4,90.8,80.7,70.5,78.0,74.3,70.0,99,82,63,30.16,30.02,9,1,13,0.00
2013-7-5,91.5,81.2,71.7,80.0,75.0,71.0,99,82,65,30.11,29.96,5,0,12,0.08
2013-7-6,87.4,78.8,70.8,74.0,71.5,69.0,98,80,57,30.06,29.96,8,1,12,0.00
2013-7-7,88.6,76.6,69.0,78.0,72.2,68.0,98,87,69,30.00,29.85,9,1,14,0.05
2013-7-8,84.7,76.1,70.4,72.0,70.7,68.0,98,84,61,29.99,29.88,10,1,12,1.31
2013-7-9,86.6,76.3,68.9,75.0,71.5,68.0,100,86,61,30.03,29.91,5,1,11,0.18
2013-7-10,84.6,76.2,70.7,77.0,73.1,69.0,97,90,76,29.94,29.72,7,1,16,0.48
2013-7-11,81.8,75.0,70.8,74.0,66.5,61.0,99,76,53,29.93,29.71,5,1,13,0.01
2013-7-12,83.3,72.8,64.1,68.0,63.7,60.0,87,74,56,30.11,29.93,6,1,12,0.00
2013-7-13,80.3,71.9,64.7,73.0,68.0,63.0,97,87,78,30.24,30.12,5,0,8,0.02
2013-7-14,88.4,78.4,69.7,79.0,73.0,69.0,100,84,63,30.29,30.16,4,0,8,0.00
2013-7-15,90.3,80.5,71.5,74.0,71.5,67.0,99,76,55,30.19,30.08,9,1,13,0.00
2013-7-16,92.4,80.8,67.4,75.0,70.3,65.0,95,72,48,30.18,30.08,9,0,11,0.00
2013-7-17,94.9,82.6,69.8,78.0,72.6,68.0,95,74,49,30.16,29.95,6,0,10,0.00
2013-7-18,93.5,84.1,74.5,78.0,74.8,72.0,94,75,53,29.99,29.87,8,1,12,0.00
2013-7-19,95.5,84.4,73.0,78.0,73.7,67.0,96,72,51,29.88,29.65,7,1,18,0.00
2013-7-20,86.3,77.2,70.6,74.0,68.0,61.0,89,74,58,29.79,29.65,15,1,18,0.00
2013-7-21,84.9,73.4,61.9,68.0,63.9,60.0,96,74,51,29.93,29.79,5,0,10,0.00
2013-7-22,86.6,73.8,63.8,73.0,65.4,57.0,96,76,55,29.96,29.77,5,0,12,0.06
2013-7-23,84.1,74.1,69.6,73.0,70.5,69.0,100,89,66,29.76,29.50,9,0,9,0.91
2013-7-24,74.3,69.1,61.3,69.0,60.6,51.0,99,76,59,29.97,29.55,17,3,19,0.00
2013-7-25,73.9,62.8,51.5,58.0,53.0,49.0,92,72,54,30.07,29.98,7,1,11,0.00
2013-7-26,78.5,67.4,59.2,63.0,58.5,55.0,92,74,54,30.04,29.94,7,1,14,0.00
2013-7-27,82.6,69.9,55.0,67.0,61.9,54.0,98,78,52,30.00,29.88,7,1,14,0.00
2013-7-28,72.0,68.5,65.8,69.0,66.0,63.0,98,92,82,29.93,29.87,5,1,13,0.27
2013-7-29,80.7,70.9,62.8,67.0,61.9,57.0,99,76,49,30.07,29.90,9,1,11,0.27
2013-7-30,78.9,66.8,55.0,62.0,58.4,54.0,98,76,52,30.13,30.03,9,1,13,0.00
2013-7-31,79.7,68.5,55.5,64.0,60.0,54.0,97,76,53,30.12,29.97,3,0,8,0.00
2013-8-1,74.2,66.9,62.6,69.0,63.7,61.0,96,89,81,29.97,29.78,9,1,25,0.02
2013-8-2,80.7,70.5,61.1,64.0,61.6,57.0,99,76,47,29.82,29.75,5,0,13,0.01
2013-8-3,79.0,69.3,61.9,63.0,58.8,54.0,95,71,45,29.83,29.76,7,1,18,0.01
2013-8-4,74.5,65.2,55.1,62.0,56.6,54.0,96,75,54,29.92,29.79,11,2,25,0.18
2013-8-5,75.6,64.6,55.1,56.0,52.3,48.0,89,67,41,30.02,29.91,8,2,14,0.18
2013-8-6,78.0,65.0,48.9,60.0,54.2,48.0,97,71,43,30.09,30.00,4,1,13,0.00
2013-8-7,74.9,69.0,60.7,66.0,62.5,58.0,93,80,71,30.09,29.98,12,1,15,0.00
2013-8-8,82.5,74.5,67.8,74.0,69.9,65.0,95,86,72,29.97,29.89,8,1,16,0.00
2013-8-9,78.4,73.5,71.0,74.0,71.8,67.0,100,94,86,29.91,29.73,7,1,12,1.26
2013-8-10,75.7,69.2,60.4,67.0,57.1,48.0,96,68,40,30.01,29.81,13,2,23,1.26
2013-8-11,76.9,63.9,51.0,61.0,54.9,50.0,97,74,50,30.08,29.96,7,1,10,0.00
2013-8-12,78.9,67.8,55.5,66.0,60.6,55.0,98,80,58,30.00,29.85,7,0,9,0.00
2013-8-13,74.8,67.2,62.1,69.0,64.8,58.0,99,92,81,29.85,29.61,7,1,17,1.00
2013-8-14,68.4,60.8,51.8,57.0,54.3,51.0,97,80,63,29.97,29.73,13,2,21,1.00
2013-8-15,73.0,61.7,49.6,58.0,53.7,49.0,98,77,48,30.08,29.97,7,1,13,0.00
2013-8-16,78.5,63.8,50.7,64.0,56.5,50.0,99,80,46,30.15,30.08,6,0,9,0.00
2013-8-17,80.9,66.1,52.0,64.0,58.3,51.0,98,79,45,30.26,30.15,5,0,7,0.00
2013-8-18,72.8,64.8,56.0,66.0,61.2,55.0,99,88,75,30.24,30.06,2,0,4,0.00
2013-8-19,80.7,67.8,59.8,67.0,62.3,59.0,99,84,50,30.06,29.95,10,0,10,0.00
2013-8-20,82.7,69.4,56.8,67.0,62.7,56.0,100,81,53,30.08,29.99,5,0,13,0.00
2013-8-21,86.5,71.3,58.5,71.0,65.1,58.0,100,83,54,30.14,29.97,6,0,8,0.00
2013-8-22,86.1,74.1,62.8,74.0,68.0,62.0,98,83,60,29.99,29.77,16,1,16,0.00
2013-8-23,76.6,69.3,61.0,67.0,59.3,52.0,96,72,43,30.12,29.84,9,1,15,0.00
2013-8-24,78.7,63.7,50.1,60.0,53.9,49.0,98,74,41,30.30,30.13,6,0,10,0.00
2013-8-25,80.7,65.0,48.8,66.0,57.4,48.0,99,79,51,30.36,30.12,8,0,9,0.00
2013-8-26,75.5,67.9,62.5,70.0,65.1,60.0,98,91,80,30.12,29.84,4,0,9,0.47
2013-8-27,81.4,72.3,66.9,72.0,68.8,66.0,100,89,68,29.87,29.80,5,0,7,0.01
2013-8-28,88.0,72.8,63.3,75.0,67.9,63.0,100,86,56,29.87,29.76,5,0,10,0.09
2013-8-29,80.9,71.3,63.2,70.0,66.8,63.0,100,86,67,29.99,29.87,7,0,8,0.09
2013-8-30,83.8,73.0,64.9,73.0,68.4,63.0,96,86,69,29.95,29.75,5,0,10,0.00
2013-8-31,79.6,72.0,68.5,76.0,70.5,68.0,100,95,84,29.76,29.69,8,0,18,2.05
2013-9-1,82.9,73.5,67.2,76.0,70.6,67.0,100,91,72,29.81,29.74,1,0,9,2.05
2013-9-2,80.1,72.9,65.4,74.0,70.6,65.0,99,92,77,29.75,29.60,9,0,14,0.28
2013-9-3,74.4,66.2,59.6,66.0,61.7,57.0,100,87,56,29.83,29.68,7,0,13,0.01
2013-9-4,78.5,66.9,56.7,60.0,58.1,54.0,98,76,45,29.92,29.83,9,1,16,0.01
2013-9-5,69.6,62.7,53.2,61.0,51.2,42.0,96,70,39,30.14,29.83,8,2,16,0.00
2013-9-6,68.7,55.3,41.9,51.0,44.8,40.0,97,72,38,30.25,30.08,4,0,9,0.00
2013-9-7,71.8,59.1,46.8,63.0,54.4,46.0,99,86,54,30.09,29.83,4,0,9,0.00
2013-9-8,69.9,62.8,48.3,62.0,53.0,42.0,96,74,39,30.09,29.76,10,1,20,0.00
2013-9-9,68.4,55.5,40.9,56.0,48.5,40.0,98,79,56,30.21,30.05,9,1,12,0.00
2013-9-10,79.3,68.2,59.8,75.0,65.9,56.0,99,92,84,30.05,29.93,10,0,16,0.20
2013-9-11,90.3,77.5,68.4,82.0,73.9,67.0,99,89,64,30.02,29.87,12,0,19,0.21
2013-9-12,80.4,70.3,66.9,75.0,69.4,67.0,100,97,82,29.89,29.62,6,0,16,1.11
2013-9-13,70.5,61.5,53.3,67.0,59.6,49.0,100,94,78,29.83,29.59,11,1,13,0.35
2013-9-14,61.0,54.5,50.3,52.0,48.3,45.0,91,80,67,30.07,29.83,9,2,13,0.35
2013-9-15,65.5,54.2,40.5,56.0,49.7,40.0,99,86,69,30.16,30.02,5,0,9,0.00
2013-9-16,63.8,54.3,42.9,55.0,51.8,42.0,99,92,72,30.29,30.00,12,1,15,0.07
2013-9-17,61.6,48.5,37.6,49.0,42.5,37.0,99,82,52,30.46,30.30,7,0,11,0.01
2013-9-18,67.8,51.3,39.6,54.0,46.7,39.0,100,86,55,30.32,30.11,4,0,10,0.01
2013-9-19,73.5,56.1,42.3,58.0,50.6,42.0,100,84,50,30.15,30.01,4,0,6,0.00
2013-9-20,77.1,60.0,45.8,60.0,53.8,46.0,100,82,54,30.06,29.90,3,0,11,0.00
2013-9-21,71.7,63.9,56.2,65.0,60.0,55.0,97,87,70,29.94,29.56,9,1,32,0.43
2013-9-22,61.5,56.8,49.3,60.0,50.6,43.0,98,80,60,29.89,29.57,10,1,22,0.01
2013-9-23,59.1,50.0,43.0,45.0,42.3,40.0,90,76,59,30.06,29.89,11,2,15,0.01
2013-9-24,64.9,52.0,39.3,48.0,43.3,37.0,94,74,51,30.05,29.85,10,2,14,0.00
2013-9-25,67.9,54.3,40.9,54.0,48.2,40.0,98,82,54,29.95,29.85,7,0,11,0.00
2013-9-26,64.1,55.5,47.5,53.0,49.3,47.0,97,81,60,30.12,29.95,7,1,15,0.00
2013-9-27,60.2,52.8,42.0,54.0,49.1,41.0,98,88,74,30.26,30.12,6,0,10,0.00
2013-9-28,70.2,54.8,42.6,58.0,50.5,42.0,99,87,58,30.34,30.21,4,0,10,0.00
2013-9-29,70.5,55.4,42.7,57.0,49.8,42.0,99,84,41,30.21,30.02,6,0,8,0.00
2013-9-30,70.6,55.9,46.3,57.0,51.4,46.0,100,86,55,30.07,29.93,6,0,9,0.00
2013-10-1,74.5,57.1,43.1,61.0,52.9,43.0,99,87,59,30.00,29.86,9,0,12,0.00
2013-10-2,75.6,61.9,49.9,65.0,56.4,49.0,100,84,60,29.98,29.87,10,1,15,0.00
2013-10-3,71.6,59.1,44.2,59.0,52.2,43.0,99,80,50,30.09,29.98,6,0,11,0.00
2013-10-4,62.5,58.0,54.7,60.0,56.7,54.0,99,95,90,30.05,29.99,5,0,7,0.52
2013-10-5,63.5,58.5,54.7,58.0,55.6,53.0,98,90,78,30.08,30.02,3,0,6,0.14
2013-10-6,61.6,56.2,51.4,60.0,55.2,51.0,100,96,89,30.09,29.98,5,0,17,0.04
2013-10-7,73.7,62.4,51.9,68.0,60.3,51.0,98,93,81,29.98,29.60,20,1,25,0.79
2013-10-8,63.5,53.3,43.3,51.0,45.1,41.0,96,76,50,30.34,29.92,7,1,12,0.79
2013-10-9,63.0,48.1,35.9,49.0,42.2,35.0,99,82,50,30.46,30.32,4,0,6,0.00
2013-10-10,57.9,48.5,37.3,51.0,45.2,37.0,99,89,69,30.32,30.15,2,0,7,0.00
2013-10-11,68.8,55.7,47.5,52.0,48.5,45.0,99,80,47,30.14,30.05,3,0,8,0.00
2013-10-12,71.7,54.7,39.3,56.0,48.4,39.0,99,81,58,30.31,30.12,10,1,18,0.00
2013-10-13,67.2,58.5,51.4,53.0,50.4,48.0,88,75,57,30.39,30.27,5,0,10,0.00
2013-10-14,65.6,55.8,44.6,57.0,51.0,43.0,98,85,66,30.32,30.20,5,0,8,0.00
2013-10-15,69.0,60.2,55.2,60.0,55.9,50.0,95,86,71,30.23,30.08,5,0,11,0.00
2013-10-16,61.9,57.1,49.8,56.0,51.0,44.0,90,80,67,30.07,29.82,6,1,16,0.00
2013-10-17,68.4,60.6,55.4,57.0,53.8,51.0,97,80,55,29.85,29.57,5,0,10,0.03
2013-10-18,63.4,55.1,41.3,61.0,46.9,39.0,99,76,41,29.91,29.54,12,2,17,0.10
2013-10-19,63.2,50.4,37.1,48.0,42.5,36.0,99,77,47,29.92,29.66,11,1,17,0.01
2013-10-20,58.9,51.1,43.9,50.0,39.6,36.0,90,66,43,30.00,29.66,9,0,16,0.01
2013-10-21,64.9,52.1,38.7,45.0,41.3,37.0,96,70,45,30.08,29.88,10,1,15,0.00
2013-10-22,54.3,49.1,35.5,49.0,42.3,33.0,92,78,59,29.87,29.73,7,0,17,0.00
2013-10-23,50.2,41.8,33.0,38.0,35.4,32.0,98,79,57,29.79,29.60,7,0,12,0.00
2013-10-24,50.5,41.7,29.7,37.0,32.3,28.0,97,72,45,29.91,29.70,11,2,21,0.00
2013-10-25,48.4,40.7,34.2,37.0,33.8,31.0,93,78,55,30.14,29.91,16,2,17,0.01
2013-10-26,51.4,41.3,30.8,36.0,33.0,30.0,96,75,46,30.13,29.80,9,1,27,0.00
2013-10-27,50.6,43.8,31.1,37.0,34.2,29.0,91,70,49,30.06,29.77,10,1,28,0.00
2013-10-28,54.8,40.4,29.4,39.0,31.6,26.0,98,74,46,30.36,30.05,10,1,18,0.00
2013-10-29,44.9,34.4,26.6,29.0,25.2,23.0,89,71,45,30.46,30.33,8,0,9,0.00
2013-10-30,51.0,39.1,31.6,41.0,34.6,27.0,95,84,68,30.32,30.17,3,0,6,0.01
2013-10-31,58.5,46.0,30.1,58.0,45.5,29.0,100,98,94,30.20,29.62,11,1,21,0.15
2013-11-1,70.1,62.2,50.1,63.0,53.7,41.0,98,76,46,29.66,29.34,19,2,29,0.05
2013-11-2,57.9,47.1,36.6,50.0,42.4,35.0,97,84,68,29.80,29.58,13,1,14,0.05
2013-11-3,41.1,36.8,27.4,36.0,26.5,19.0,84,67,50,30.46,29.81,10,1,18,0.00
2013-11-4,40.0,29.8,20.7,22.0,19.4,17.0,92,68,40,30.67,30.46,8,0,14,0.00
2013-11-5,51.5,38.8,23.3,39.0,30.9,21.0,93,74,58,30.66,30.43,7,0,14,0.00
2013-11-6,57.9,50.8,42.9,48.0,44.0,39.0,90,78,67,30.43,29.91,12,1,27,0.00
2013-11-7,55.3,48.5,40.3,52.0,43.6,35.0,95,83,72,29.90,29.74,11,2,19,0.22
2013-11-8,43.2,37.7,28.8,36.0,31.8,26.0,90,80,54,30.15,29.86,17,2,23,0.22
2013-11-9,43.0,35.0,24.3,32.0,28.7,22.0,94,79,62,30.22,29.90,4,0,10,0.00
2013-11-10,50.2,43.8,38.9,40.0,34.5,30.0,87,70,53,29.97,29.74,12,2,22,0.00
2013-11-11,48.0,43.4,37.5,35.0,31.2,29.0,73,63,51,30.13,29.88,12,2,22,0.00
2013-11-12,44.9,30.9,26.7,36.0,22.5,17.0,86,71,60,30.26,29.89,14,2,27,0.00
2013-11-13,34.2,27.5,22.3,20.0,16.3,13.0,78,64,45,30.36,30.15,9,1,20,0.00
2013-11-14,50.6,35.0,26.2,26.0,22.8,20.0,83,64,38,30.14,30.04,12,1,16,0.00
2013-11-15,54.6,38.6,26.5,28.0,23.5,19.0,81,58,30,30.18,30.07,6,0,10,0.00
2013-11-16,58.4,44.7,33.6,40.0,33.9,28.0,82,68,45,30.28,30.16,5,0,9,0.00
2013-11-17,59.5,49.8,39.1,57.0,48.4,36.0,99,95,82,30.21,29.66,13,1,26,0.00
2013-11-18,61.1,55.2,41.5,58.0,42.9,31.0,97,66,37,29.73,29.44,17,2,24,0.15
2013-11-19,41.7,35.7,27.9,30.0,24.1,20.0,76,63,56,30.37,29.73,15,2,24,0.15
2013-11-20,36.4,27.9,20.8,20.0,17.7,16.0,83,67,43,30.63,30.38,7,0,11,0.00
2013-11-21,43.5,31.0,15.2,33.0,23.4,13.0,94,75,52,30.63,30.35,5,0,11,0.00
2013-11-22,46.7,40.5,36.8,44.0,38.3,31.0,98,92,74,30.34,29.85,13,1,40,0.02
2013-11-23,44.2,33.8,22.4,38.0,25.2,16.0,85,71,48,30.00,29.83,25,4,35,0.02
2013-11-24,24.0,19.6,14.5,16.0,7.2,3.0,78,60,42,30.30,29.91,13,3,29,0.00
2013-11-25,31.3,23.5,12.5,18.0,11.5,4.0,74,61,54,30.42,30.20,11,1,17,0.00
2013-11-26,33.3,30.8,26.7,31.0,26.7,16.0,97,86,55,30.27,29.91,5,0,13,0.31
2013-11-27,37.9,34.5,31.7,38.0,33.1,27.0,99,94,81,29.90,29.39,14,3,26,0.61
2013-11-28,31.4,24.1,16.5,26.0,15.6,10.0,90,71,53,30.44,29.63,21,4,30,0.61
2013-11-29,30.4,23.3,17.9,19.0,15.9,12.0,92,75,51,30.75,30.45,7,1,14,0.00
2013-11-30,29.6,22.6,10.1,21.0,13.1,8.0,92,68,50,30.78,30.34,7,1,15,0.00
2013-12-1,39.1,31.8,24.5,31.0,26.9,21.0,92,82,71,30.34,30.00,0,0,6,0.00
2013-12-2,38.2,33.5,27.7,33.0,30.7,26.0,94,89,82,30.00,29.87,2,0,3,0.00
2013-12-3,42.0,33.2,26.3,36.0,29.7,25.0,98,87,74,29.98,29.88,4,0,10,0.00
2013-12-4,41.2,29.9,22.1,32.0,26.0,21.0,97,86,66,30.13,29.98,2,0,4,0.00
2013-12-5,51.9,44.0,27.0,51.0,42.9,25.0,98,95,90,30.13,29.85,12,1,20,0.00
2013-12-6,51.2,38.7,31.5,50.0,35.6,30.0,97,88,77,30.16,29.87,8,2,15,0.17
2013-12-7,35.0,31.7,27.9,31.0,25.7,19.0,97,79,66,30.48,30.13,12,2,21,0.18
2013-12-8,29.9,27.5,23.9,22.0,20.7,19.0,87,75,68,30.58,30.41,5,0,10,0.00
2013-12-9,35.9,30.4,25.3,34.0,28.8,21.0,98,93,74,30.41,29.88,5,1,15,0.00
2013-12-10,34.0,28.0,16.4,32.0,24.6,14.0,99,87,71,29.99,29.82,6,1,12,0.02
2013-12-11,30.6,25.4,16.2,22.0,16.4,10.0,93,69,54,30.20,29.99,13,2,20,0.02
2013-12-12,21.8,17.8,11.8,17.0,8.1,0.0,88,67,43,30.33,30.03,5,1,11,0.00
2013-12-13,27.5,21.8,12.3,22.0,12.8,5.0,90,69,59,30.40,29.96,14,2,22,0.00
2013-12-14,13.9,10.0,7.5,9.0,4.3,-1.0,92,78,67,30.58,30.07,3,0,8,0.32
2013-12-15,30.3,21.5,10.7,27.0,19.4,9.0,96,91,81,30.05,29.54,11,0,14,0.40
2013-12-16,24.5,17.5,2.2,23.0,11.6,-1.0,95,78,64,30.22,29.74,12,1,20,0.40
2013-12-17,11.9,3.5,-7.8,10.0,1.1,-11.0,92,90,87,30.24,29.99,0,0,3,0.14
2013-12-18,24.7,17.0,8.4,21.0,14.9,6.0,94,91,86,30.06,29.97,2,0,4,0.14
2013-12-19,37.8,28.6,18.1,27.0,23.8,17.0,96,83,63,30.07,29.94,5,0,12,0.00
2013-12-20,41.7,35.5,27.7,35.0,31.0,25.0,91,84,71,30.06,29.86,3,0,9,0.00
2013-12-21,48.9,42.8,39.1,42.0,37.6,33.0,99,82,69,29.88,29.79,5,1,12,0.09
2013-12-22,54.1,37.7,31.5,54.0,37.5,31.0,100,99,91,29.90,29.56,12,0,22,0.09
2013-12-23,46.1,40.0,33.2,44.0,37.7,28.0,99,91,76,30.16,29.90,8,1,17,0.14
2013-12-24,33.0,26.2,17.1,28.0,18.5,10.0,85,73,61,30.32,30.10,14,2,22,0.14
2013-12-25,21.7,15.3,9.4,11.0,6.0,3.0,75,67,57,30.55,30.32,12,1,17,0.00
2013-12-26,29.2,25.2,18.9,25.0,19.3,11.0,95,79,60,30.38,30.09,9,0,19,0.00
2013-12-27,33.6,28.0,19.7,25.0,22.0,16.0,95,78,67,30.27,30.18,0,0,8,0.00
2013-12-28,45.5,32.0,24.7,32.0,26.1,22.0,93,80,59,30.20,29.99,2,0,15,0.00
2013-12-29,39.6,31.5,24.6,36.0,29.8,23.0,99,93,74,30.00,29.55,1,0,3,0.78
2013-12-30,33.5,23.8,12.4,33.0,18.6,7.0,99,81,65,30.21,29.62,13,1,27,0.78
2013-12-31,22.7,16.4,9.1,20.0,10.9,5.0,93,79,56,30.21,29.99,12,1,24,0.00
2014-1-1,23.8,17.9,10.3,14.0,10.6,6.0,90,74,59,30.36,30.19,3,0,13,0.00
2014-1-2,17.0,3.5,-2.1,14.0,0.9,-5.0,90,89,87,30.32,29.92,6,0,12,0.20